Weather in Omis

Croatia     43°26′29″N   16°41′10″E
temp.,
°C
wind,
m/s
gust,
m/s
humid.,
%
clouds,
%
prec.,
mm/h
press.,
hPa
HPBL,
m
8 december, wed
wed801:000nne33690 0.0 1012112
04:000nne22670 0.0 101279
07:000ne22650 0.0 101366
10:00+4e224759 0.0 1012290
13:00+6se455798 0.0 1011631
16:00+4ese586352 0.0 1011315
19:00+5ese71376100 0.0 1010718
22:00+5ese91690100 1.0 10091002
9 december, thu
thu901:00+5ese91993100 6.1 10061076
04:00+7se102097100 19.1 10031314
07:00+9se122198100 27.5 10001595
10:00+8ssw61187100 13.4 10001185
13:00+8s5983100 17.5 1001669
16:00+7s4688100 2.8 1001434
19:00+4ne2287100 7.1 1004128
22:00+4ene228497 0.0 100558
10 december, fri
fri1001:00+4e2393100 0.6 1005178
04:00+6ese3691100 2.8 1004293
07:00+5ese368974 4.8 1005326
10:00+6sse4685100 2.2 1006585
13:00+6sse248791 4.8 1005592
16:00+6ese228750 0.9 1004191
19:00+4ese3591100 1.4 1005158
22:00+4e4793100 0.5 1004309
11 december, sat
sat1101:00+5e4992100 1.4 1002716
04:00+5ene4892100 2.4 1000487
07:00+5ne3685100 3.6 998272
10:00+4ne4891100 8.3 1000427
13:00+6ne5980100 11.3 1000694
16:00+4ne61170100 0.2 1001601
19:00+4ne71279100 1.4 1004659
22:00+4ne81967100 0.4 1005885
12 december, sun
sun1201:00+3nne7176297 0.4 1007986
04:00+3ne41067100 0.0 1011550
07:00+2nne3467100 0.0 1013241
10:00+4n41360100 0.0 10161438
13:00+3n41263100 0.0 10171362
16:00+3n3667100 0.0 1019343
19:00+1nnw35765 0.0 1022275
22:00+1n357599 0.0 1023233